Weather in Trà Vinh

Vietnam     9°56′11″N   106°20′31″E
temp.,
°C
wind,
m/s
gust,
m/s
humid.,
%
clouds,
%
prec.,
mm/h
press.,
hPa
HPBL,
m
24 june, thu
thu2401:00+25wsw21085100 0.0 1010355
04:00+25sw2787100 0.1 1009222
07:00+26wsw2884100 0.1 1010350
10:00+32w5757100 0.0 10101432
13:00+35w564573 0.0 10072281
16:00+34wnw56519 0.0 10051765
19:00+28w410686 0.0 1007415
22:00+27wsw4117715 0.0 1009543
25 june, fri
fri2501:00+26sw31083100 0.0 1008475
04:00+25sw2986100 0.0 1007431
07:00+27sw3982100 0.1 1009463
10:00+32w5758100 0.0 10091493
13:00+31wsw475999 0.1 1007716
16:00+31w5762100 0.1 10051052
19:00+28w3869100 0.2 1007261
22:00+27wsw31077100 0.0 1009401
26 june, sat
sat2601:00+26sw2982100 0.0 1008325
04:00+25sw2785100 0.0 1008256
07:00+27sw2581100 0.0 1010257
10:00+32sw3555100 0.0 10111428
13:00+34ssw344597 0.0 10082137
16:00+30s4664100 0.1 1008603
19:00+26ssw2687100 1.4 1009146
22:00+26sw278983 0.0 1011199
27 june, sun
sun2701:00+25wsw249280 0.0 1010100
04:00+25sw239345 0.0 101072
07:00+27sw23846 0.0 1011184
10:00+32sw34564 0.0 10121428
13:00+32wsw2455100 0.2 10091479
16:00+31ssw246397 0.7 1008431
19:00+28s367529 0.7 1009177
22:00+26sw26855 0.0 1011179
28 june, mon
mon2801:00+25sw24899 0.0 1010122
04:00+25wsw258994 0.0 1009133
07:00+26sw258285 0.0 1011223
10:00+32wsw3454100 0.0 10101235
13:00+35wnw3444100 0.0 10082002
16:00+34w4551100 0.0 10061364
19:00+29wsw3771100 0.1 1008215
22:00+27wsw3980100 0.0 1010321